New Castle, PA

11:02 PM EDT on June 25, 2017 (GMT -0400)
New Castle Municipal

Weather History for KUCP - March, 2014

Change the Weather History Date:

Friday, March 21, 2014

  Actual Average Record
Temperature  
Mean Temperature 32 °F -  
Max Temperature 41 °F 51 °F 79 °F (2012)
Min Temperature 22 °F 27 °F 9 °F (1965)
Degree Days  
Heating Degree Days 34    
Moisture  
Dew Point 26 °F    
Average Humidity 81    
Maximum Humidity 93    
Minimum Humidity 65    
Precipitation  
Precipitation 0.00 in - - ()
Sea Level Pressure  
Sea Level Pressure 30.10 in    
Wind  
Wind Speed 0 mph (ESE)    
Max Wind Speed 5 mph    
Max Gust Speed -    
Visibility 8 miles    
Events Snow    
Averages and records for this station are not official NWS values.
T = Trace of Precipitation, MM = Missing Value Source: NWS Daily Summary

Daily Weather History Graph

Daily Weather History Graph

Search for Another Location

Airport or City:

Trip Planner

Search our weather history database for the weather conditions in past years. The results will help you decide how hot, cold, wet, or windy it might be!

Date:

Astronomy

Mar. 21, 2014 Rise Set
Actual Time 7:23 AM EDT 7:34 PM EDT
Civil Twilight 6:55 AM EDT 8:02 PM EDT
Nautical Twilight 6:23 AM EDT 8:34 PM EDT
Astronomical Twilight 5:51 AM EDT 9:07 PM EDT
Moon No Moon Rise 10:11 AM EDT (3/21)
Length of Visible Light 13h 06m
Length of Day
12h 11m
Waning Gibbous, 75% of the Moon is Illuminated
Mar 21
Waning Gibbous
Mar 23
Last Quarter
Mar 30
New
Apr 7
First Quarter
Apr 15
Full

Hourly Weather History & Observations

Time (EDT) Temp. Windchill Dew Point Humidity Pressure Visibility Wind Dir Wind Speed Gust Speed Precip Events Conditions
12:56 AM 29.1 °F - 23.0 °F 78% 30.12 in 10.0 mi Calm Calm - N/A   Mostly Cloudy
1:56 AM 30.0 °F - 22.1 °F 72% 30.12 in 10.0 mi Calm Calm - N/A   Mostly Cloudy
2:56 AM 28.0 °F - 22.1 °F 78% 30.12 in 10.0 mi Calm Calm - N/A   Clear
3:56 AM 25.2 °F - 22.1 °F 88% 30.12 in 10.0 mi Calm Calm - N/A   Clear
4:56 AM 23.0 °F - 19.0 °F 85% 30.12 in 10.0 mi Calm Calm - N/A   Clear
5:56 AM 23.0 °F - 21.0 °F 92% 30.14 in 10.0 mi Calm Calm - N/A   Clear
6:56 AM 23.0 °F - 21.0 °F 92% 30.14 in 10.0 mi Calm Calm - N/A   Clear
7:56 AM 22.1 °F - 20.1 °F 92% 30.17 in 6.0 mi Calm Calm - N/A   Clear
8:56 AM 27.1 °F - 24.1 °F 88% 30.16 in 7.0 mi Calm Calm - N/A   Clear
9:56 AM 31.1 °F - 25.2 °F 79% 30.17 in 10.0 mi Calm Calm - N/A   Partly Cloudy
10:56 AM 31.1 °F - 25.2 °F 79% 30.18 in 10.0 mi Calm Calm - N/A   Partly Cloudy
11:30 AM 30.2 °F - 23.0 °F 75% 30.11 in 2.5 mi Calm Calm - 0.00 in Snow Light Snow
11:35 AM 30.2 °F - 24.8 °F 80% 30.11 in 1.2 mi Calm Calm - 0.00 in Snow Light Snow
11:40 AM 30.2 °F - 24.8 °F 80% 30.12 in 1.0 mi Calm Calm - 0.00 in Snow Light Snow
11:43 AM 28.4 °F - 24.8 °F 86% 30.12 in 0.8 mi Calm Calm - 0.00 in Snow Light Snow
11:56 AM 29.1 °F - 26.1 °F 88% 30.19 in 1.2 mi Calm Calm - 0.00 in Snow Light Snow
11:58 AM 28.4 °F - 26.6 °F 93% 30.11 in 1.5 mi Calm Calm - 0.00 in Snow Light Snow
12:01 PM 28.4 °F - 26.6 °F 93% 30.11 in 2.0 mi Calm Calm - 0.00 in Snow Light Snow
12:11 PM 28.4 °F - 26.6 °F 93% 30.11 in 5.0 mi Calm Calm - 0.00 in Snow Light Snow
12:23 PM 30.2 °F - 26.6 °F 86% 30.11 in 7.0 mi Calm Calm - 0.00 in Snow Light Snow
12:26 PM 30.2 °F - 26.6 °F 86% 30.11 in 8.0 mi Calm Calm - 0.00 in Snow Light Snow
12:45 PM 30.2 °F - 26.6 °F 86% 30.10 in 9.0 mi Calm Calm - 0.00 in   Overcast
12:56 PM 30.0 °F - 27.1 °F 89% 30.18 in 9.0 mi Calm Calm - 0.00 in   Overcast
1:56 PM 32.0 °F - 27.1 °F 82% 30.17 in 10.0 mi Calm Calm - N/A   Mostly Cloudy
2:21 PM 33.8 °F - 28.4 °F 81% 30.07 in 10.0 mi Calm Calm - N/A   Mostly Cloudy
2:29 PM 33.8 °F - 28.4 °F 81% 30.07 in 10.0 mi Calm Calm - N/A   Overcast
2:44 PM 33.8 °F - 28.4 °F 81% 30.07 in 10.0 mi Calm Calm - N/A   Overcast
2:56 PM 34.0 °F - 28.0 °F 79% 30.14 in 10.0 mi Calm Calm - N/A   Overcast
3:56 PM 38.8 °F 36.5 °F 29.1 °F 68% 30.12 in 10.0 mi Variable 3.5 mph - N/A   Scattered Clouds
4:56 PM 39.9 °F 36.7 °F 29.1 °F 65% 30.10 in 10.0 mi Variable 4.6 mph - N/A   Clear
5:56 PM 41.9 °F - 31.1 °F 66% 30.08 in 10.0 mi Calm Calm - N/A   Clear
6:56 PM 41.0 °F - 32.0 °F 70% 30.05 in 10.0 mi Calm Calm - N/A   Clear
7:56 PM 37.9 °F 35.5 °F 31.1 °F 76% 30.02 in 10.0 mi East 3.5 mph - N/A   Clear
8:56 PM 37.9 °F 35.5 °F 31.1 °F 76% 30.00 in 10.0 mi ESE 3.5 mph - N/A   Clear
9:56 PM 37.9 °F 34.4 °F 30.0 °F 73% 29.99 in 10.0 mi SE 4.6 mph - N/A   Clear
10:56 PM 37.9 °F - 30.0 °F 73% 29.96 in 10.0 mi Calm Calm - N/A   Clear
11:56 PM 37.9 °F - 31.1 °F 76% 29.93 in 10.0 mi Calm Calm - N/A   Clear